This demonstration page uses our WeatherBlox Daily Observations layout. Learn more.

Left ArrowRight Arrow

Hourly Observations for July 26, 2016

Temp ( °F °C ) Dew Point ( °F °C ) Humidity (%) Winds ( mph kmh ) Pressure ( in mb ) Visibility ( mi km ) Precip ( " mm )
12:15 am 00:15 Clear 82 28 73 23 74 74 N 5 7 29.94 1014 10 16 N/A
12:35 am 00:35 Clear 82 28 75 24 79 79 N 5 7 29.94 1014 10 16 N/A
12:55 am 00:55 Clear 81 27 75 24 84 84 NE 3 6 29.94 1014 10 16 N/A
1:15 am 01:15 Clear 81 27 77 25 89 89 N 6 9 29.94 1014 10 16 N/A
1:35 am 01:35 Clear 79 26 75 24 89 89 N 3 6 29.94 1014 10 16 N/A
1:55 am 01:55 Clear 79 26 75 24 89 89 NNE 5 7 29.94 1014 10 16 N/A
2:15 am 02:15 Clear 79 26 75 24 89 89 NNE 6 9 29.94 1014 10 16 N/A
2:35 am 02:35 Clear 79 26 75 24 89 89 ENE 3 6 29.94 1014 10 16 N/A
2:55 am 02:55 Clear 79 26 75 24 89 89 NE 3 6 29.94 1014 10 16 N/A
3:15 am 03:15 Clear 79 26 75 24 89 89 N N/A 29.94 1014 10 16 N/A
3:35 am 03:35 Clear 79 26 75 24 89 89 N N/A 29.94 1014 10 16 N/A
3:55 am 03:55 Clear 79 26 75 24 89 89 N N/A 29.94 1014 10 16 N/A
4:15 am 04:15 Clear 79 26 75 24 89 89 N N/A 29.94 1014 10 16 N/A
4:35 am 04:35 Clear 79 26 73 23 84 84 N N/A 29.94 1014 10 16 N/A
4:55 am 04:55 Clear 79 26 75 24 89 89 NNE 3 6 29.94 1014 10 16 N/A
5:15 am 05:15 Clear 79 26 75 24 89 89 N N/A 29.94 1014 10 16 N/A
5:35 am 05:35 Partly Cloudy 77 25 73 23 89 89 N N/A 29.94 1014 10 16 N/A
5:55 am 05:55 Clear 77 25 73 23 89 89 W 7 11 29.97 1015 10 16 N/A
6:15 am 06:15 Sunny 77 25 73 23 89 89 N N/A 29.97 1015 10 16 N/A
6:35 am 06:35 Sunny 77 25 73 23 89 89 N N/A 29.97 1015 10 16 N/A
6:55 am 06:55 Sunny 77 25 73 23 89 89 N N/A 29.97 1015 10 16 N/A
7:15 am 07:15 Partly Cloudy 79 26 73 23 84 84 N N/A 29.97 1015 10 16 N/A
7:35 am 07:35 Partly Cloudy 79 26 73 23 84 84 N N/A 29.97 1015 10 16 N/A
7:55 am 07:55 Sunny 81 27 73 23 79 79 N N/A 30.00 1016 10 16 N/A
8:15 am 08:15 Sunny 82 28 73 23 74 74 WNW 13 20 30.00 1016 10 16 N/A
8:35 am 08:35 Sunny 82 28 73 23 74 74 NW 7 11 30.00 1016 10 16 N/A
8:55 am 08:55 Sunny 86 30 73 23 66 66 WNW 10 17 30.00 1016 10 16 N/A
9:15 am 09:15 Sunny 88 31 73 23 62 62 WNW 10 17 29.97 1015 10 16 N/A
9:35 am 09:35 Sunny 86 30 73 23 66 66 NW 7 11 30.00 1016 10 16 N/A
9:55 am 09:55 Sunny 86 30 73 23 66 66 NNW 5 7 30.00 1016 10 16 N/A
10:15 am 10:15 Sunny 86 30 73 23 66 66 NW 9 15 30.00 1016 10 16 N/A
10:35 am 10:35 Sunny 88 31 75 24 66 66 WNW 12 19 29.97 1015 10 16 N/A
10:55 am 10:55 Sunny 88 31 75 24 66 66 WNW 12 19 29.97 1015 10 16 N/A
11:15 am 11:15 Sunny 88 31 75 24 66 66 WNW 10 17 29.97 1015 10 16 N/A
11:35 am 11:35 Sunny 88 31 75 24 66 66 WNW 9 15 29.97 1015 10 16 N/A
11:55 am 11:55 Sunny 88 31 75 24 66 66 NW 8 13 29.97 1015 10 16 N/A
12:15 pm 12:15 Sunny 90 32 77 25 67 67 W 7 11 29.97 1015 10 16 N/A
12:35 pm 12:35 Sunny 90 32 77 25 67 67 W 3 6 29.97 1015 10 16 N/A
12:55 pm 12:55 Sunny 88 31 77 25 70 70 WSW 7 11 29.97 1015 10 16 N/A
1:15 pm 13:15 Partly Cloudy 90 32 77 25 67 67 WSW 5 7 29.97 1015 10 16 N/A
1:35 pm 13:35 Mostly Cloudy 90 32 77 25 67 67 W 12 19 29.94 1014 10 16 N/A
1:55 pm 13:55 Partly Cloudy 90 32 77 25 67 67 N N/A 29.94 1014 10 16 N/A
2:15 pm 14:15 Sunny 90 32 73 23 59 59 W 10 17 29.94 1014 10 16 N/A
2:35 pm 14:35 Partly Cloudy 91 33 77 25 63 63 W 13 20 29.94 1014 10 16 N/A
2:55 pm 14:55 Sunny 91 33 75 24 59 59 W 3 6 29.94 1014 10 16 N/A
3:15 pm 15:15 Sunny 93 34 73 23 53 53 W 14 22 29.94 1014 10 16 N/A
3:35 pm 15:35 Sunny 91 33 72 22 52 52 NW 9 15 29.94 1014 10 16 N/A
3:55 pm 15:55 Sunny 90 32 72 22 55 55 NW 8 13 29.91 1013 10 16 N/A
4:15 pm 16:15 Sunny 91 33 73 23 56 56 WNW 9 15 29.91 1013 10 16 N/A
4:35 pm 16:35 Sunny 90 32 72 22 55 55 N N/A 29.91 1013 10 16 N/A
4:55 pm 16:55 Sunny 90 32 72 22 55 55 NW 7 11 29.91 1013 10 16 N/A
5:15 pm 17:15 Sunny 90 32 72 22 55 55 WNW 5 7 29.91 1013 10 16 N/A
5:35 pm 17:35 Sunny 90 32 73 23 59 59 NNW 3 6 29.91 1013 10 16 N/A
5:55 pm 17:55 Sunny 90 32 72 22 55 55 N N/A 29.91 1013 10 16 N/A
6:15 pm 18:15 Sunny 91 33 72 22 52 52 N N/A 29.91 1013 10 16 N/A
6:35 pm 18:35 Sunny 91 33 72 22 52 52 W 3 6 29.91 1013 10 16 N/A
6:55 pm 18:55 Sunny 90 32 73 23 59 59 N N/A 29.91 1013 10 16 N/A
7:15 pm 19:15 Sunny 90 32 73 23 59 59 SW 5 7 29.91 1013 10 16 N/A
7:35 pm 19:35 Partly Cloudy 88 31 75 24 66 66 SSW 5 7 29.91 1013 10 16 N/A
7:55 pm 19:55 Partly Cloudy 86 30 75 24 70 70 SW 3 6 29.91 1013 10 16 N/A
8:15 pm 20:15 Sunny 86 30 75 24 70 70 SSW 3 6 29.91 1013 10 16 N/A
8:35 pm 20:35 Clear 84 29 75 24 74 74 SSW 3 6 29.94 1014 10 16 N/A
8:55 pm 20:55 Clear 84 29 75 24 74 74 SSW 9 15 29.97 1015 10 16 N/A
9:15 pm 21:15 Clear 82 28 77 25 84 84 SW 7 11 29.97 1015 10 16 N/A
9:35 pm 21:35 Clear 82 28 77 25 84 84 SW 7 11 29.97 1015 10 16 N/A
9:55 pm 21:55 Clear 81 27 77 25 89 89 WSW 3 6 29.97 1015 10 16 N/A
10:15 pm 22:15 Clear 82 28 77 25 84 84 WSW 3 6 29.97 1015 10 16 N/A
10:35 pm 22:35 Clear 82 28 77 25 84 84 SW 5 7 29.94 1014 10 16 N/A
10:55 pm 22:55 Clear 81 27 77 25 89 89 SW 9 15 29.94 1014 10 16 N/A
11:15 pm 23:15 Clear 81 27 77 25 89 89 SSW 13 20 29.97 1015 10 16 N/A
11:35 pm 23:35 Clear 81 27 77 25 89 89 WSW 3 6 29.97 1015 10 16 N/A
11:55 pm 23:55 Clear 81 27 77 25 89 89 WSW 5 7 29.97 1015 10 16 N/A

Powered by AerisWeather